Rochester, Indiana, United States (46975)
Lat: 41.06N, Lon: 86.22W
Wx Zone: INZ015
Local Info
Past Weather Observations for Today

NOTE: This archive is for the closest National Weather Service station to Rochester. Information may differ from the station used for current weather conditions.

Click here for Long-term Archive

Time Weather Temperature Dewpoint Humidity Pressure Winds Precip Visibility
12:35
Overcast
36°F / 2°C 32°F / 0°C 87% 29.36 in
(994 mb)
SSW 24.2 mph
(SSW 39 kph)
- 10SM
12:15
Overcast
37°F / 3°C 32°F / 0°C 81% 29.36 in
(994 mb)
SSW 27.6 mph
(SSW 44 kph)
- 7SM
11:55
Overcast
37°F / 3°C 34°F / 1°C 87% 29.33 in
(993 mb)
SSW 28.8 mph
(SSW 46 kph)
- 10SM
11:35
Overcast
Drizzle
39°F / 4°C 36°F / 2°C 87% 29.3 in
(992 mb)
SSW 23 mph
(SSW 37 kph)
- 4SM
11:15
Overcast
39°F / 4°C 36°F / 2°C 87% 29.27 in
(991 mb)
SSW 31.1 mph
(SSW 50 kph)
- 7SM
10:55
Overcast
Light Rain
41°F / 5°C 37°F / 3°C 87% 29.24 in
(990 mb)
SSW 26.5 mph
(SSW 43 kph)
- 5SM
10:35
Overcast
Light Rain
43°F / 6°C 41°F / 5°C 93% 29.21 in
(989 mb)
SW 21.9 mph
(SW 35 kph)
- 5SM
10:15
Overcast
Rain
46°F / 8°C 45°F / 7°C 93% 29.15 in
(987 mb)
SW 25.3 mph
(SW 41 kph)
- 4SM
09:55
Overcast
54°F / 12°C 50°F / 10°C 88% 29.12 in
(986 mb)
SW 15 mph
(SW 24 kph)
- 10SM
09:35
Overcast
54°F / 12°C 50°F / 10°C 88% 29.09 in
(985 mb)
SW 9.2 mph
(SW 15 kph)
- 10SM
08:55
Overcast
54°F / 12°C 52°F / 11°C 94% 29.09 in
(985 mb)
SW 9.2 mph
(SW 15 kph)
- 10SM
08:35
Overcast
54°F / 12°C 52°F / 11°C 94% 29.09 in
(985 mb)
SW 9.2 mph
(SW 15 kph)
- 10SM
08:15
Overcast
54°F / 12°C 52°F / 11°C 94% 29.09 in
(985 mb)
SSE 9.2 mph
(SSE 15 kph)
- 10SM
07:55
Overcast
54°F / 12°C 52°F / 11°C 94% 29.09 in
(985 mb)
S 8.1 mph
(S 13 kph)
- 10SM
07:35
Overcast
54°F / 12°C 52°F / 11°C 94% 29.12 in
(986 mb)
SSE 5.8 mph
(SSE 9 kph)
- 10SM
06:55
Overcast
Light Rain
52°F / 11°C 52°F / 11°C 100% 29.12 in
(986 mb)
SSE 6.9 mph
(SSE 11 kph)
0.01 in
(0.25 mm)
10SM
06:35
Overcast
52°F / 11°C 52°F / 11°C 100% 29.12 in
(986 mb)
SSE 8.1 mph
(SSE 13 kph)
0.01 in
(0.25 mm)
10SM
06:15
Overcast
Drizzle
52°F / 11°C 52°F / 11°C 100% 29.12 in
(986 mb)
SW 5.8 mph
(SW 9 kph)
0.01 in
(0.25 mm)
3SM
05:55
Overcast
52°F / 11°C 52°F / 11°C 100% 29.15 in
(987 mb)
SSE 5.8 mph
(SSE 9 kph)
- 7SM
05:35
Overcast
Light Rain
52°F / 11°C 52°F / 11°C 100% 29.15 in
(987 mb)
SSE 8.1 mph
(SSE 13 kph)
- 4SM
05:15
Overcast
Rain
52°F / 11°C 52°F / 11°C 100% 29.15 in
(987 mb)
SW 5.8 mph
(SW 9 kph)
- 4SM
04:55
Overcast
Heavy Rain
52°F / 11°C 52°F / 11°C 100% 29.15 in
(987 mb)
SW 9.2 mph
(SW 15 kph)
0.01 in
(0.25 mm)
3SM
04:35
Overcast
Rain
52°F / 11°C 50°F / 10°C 94% 29.15 in
(987 mb)
SW 5.8 mph
(SW 9 kph)
- 5SM
04:15
Overcast
Drizzle
52°F / 11°C 50°F / 10°C 94% 29.15 in
(987 mb)
SW 11.5 mph
(SW 19 kph)
- 4SM
03:55
Overcast
Heavy Rain
52°F / 11°C 50°F / 10°C 94% 29.15 in
(987 mb)
SW 12.7 mph
(SW 20 kph)
0.03 in
(0.76 mm)
4SM
03:35
Overcast
Rain
52°F / 11°C 50°F / 10°C 94% 29.15 in
(987 mb)
SSW 12.7 mph
(SSW 20 kph)
0.01 in
(0.25 mm)
7SM
03:15
Overcast
Light Rain
52°F / 11°C 50°F / 10°C 94% 29.12 in
(986 mb)
SSW 15 mph
(SSW 24 kph)
- 10SM
02:55
Overcast
Rain
52°F / 11°C 52°F / 11°C 100% 29.12 in
(986 mb)
SSW 16.1 mph
(SSW 26 kph)
0.01 in
(0.25 mm)
10SM
02:35
Overcast
Rain
52°F / 11°C 52°F / 11°C 100% 29.12 in
(986 mb)
SW 16.1 mph
(SW 26 kph)
0.01 in
(0.25 mm)
10SM
02:15
Overcast
Light Rain
52°F / 11°C 52°F / 11°C 100% 29.09 in
(985 mb)
SW 12.7 mph
(SW 20 kph)
0.01 in
(0.25 mm)
7SM
01:55
Overcast
Light Rain
52°F / 11°C 52°F / 11°C 100% 29.09 in
(985 mb)
SW 16.1 mph
(SW 26 kph)
0.05 in
(1.27 mm)
10SM
01:35
Overcast
Rain
54°F / 12°C 52°F / 11°C 94% 29.09 in
(985 mb)
SW 9.2 mph
(SW 15 kph)
0.04 in
(1.02 mm)
7SM
01:15
Overcast
Rain
52°F / 11°C 52°F / 11°C 100% 29.09 in
(985 mb)
SW 6.9 mph
(SW 11 kph)
0.02 in
(0.51 mm)
5SM
00:55
Overcast
Rain
52°F / 11°C 52°F / 11°C 100% 29.09 in
(985 mb)
SSE 8.1 mph
(SSE 13 kph)
0.09 in
(2.29 mm)
7SM
00:35
Overcast
Rain
52°F / 11°C 52°F / 11°C 100% 29.09 in
(985 mb)
S 4.6 mph
(S 7 kph)
0.06 in
(1.52 mm)
7SM
00:15
Overcast
Rain
52°F / 11°C 52°F / 11°C 100% 29.09 in
(985 mb)
S 4.6 mph
(S 7 kph)
0.03 in
(0.76 mm)
5SM
Time Weather Temperature Dewpoint Humidity Pressure Winds Precip Visibility


Weather for websites

WeatherForYou.com, LLC is not responsible for any damages or problems caused by this service. Current weather conditions are obtained from the closest station including government and personal stations which may have varying degrees of accuracy. Weather forecasts are derived from the NOAA NDFD. Like all things, this site belongs to Jesus Christ... He just trusts me to maintain it. If you have any questions or comments email webmaster@weatherforyou.com

Copyright © 2014, WeatherForYou.com LLC. All rights reserved.